Index of /20260427/WXO-DD/model_rdps/10km/18/079
Name Last modified Size Description
Parent Directory -
20260427T18Z_MSC_RDPS_AbsoluteVorticity_IsbL-0250_RLatLon0.09_PT079H.grib2 2026-04-27 21:04 611K
20260427T18Z_MSC_RDPS_AbsoluteVorticity_IsbL-0500_RLatLon0.09_PT079H.grib2 2026-04-27 21:04 571K
20260427T18Z_MSC_RDPS_AbsoluteVorticity_IsbL-0700_RLatLon0.09_PT079H.grib2 2026-04-27 21:04 618K
20260427T18Z_MSC_RDPS_AbsoluteVorticity_IsbL-0850_RLatLon0.09_PT079H.grib2 2026-04-27 21:04 765K
20260427T18Z_MSC_RDPS_AirTemp_AGL-120m_RLatLon0.09_PT079H.grib2 2026-04-27 21:04 385K
20260427T18Z_MSC_RDPS_AirTemp_AGL-2m_RLatLon0.09_PT079H.grib2 2026-04-27 21:04 622K
20260427T18Z_MSC_RDPS_AirTemp_AGL-40m_RLatLon0.09_PT079H.grib2 2026-04-27 21:04 397K
20260427T18Z_MSC_RDPS_AirTemp_AGL-80m_RLatLon0.09_PT079H.grib2 2026-04-27 21:04 390K
20260427T18Z_MSC_RDPS_AirTemp_IsbL-0001_RLatLon0.09_PT079H.grib2 2026-04-27 21:04 258K
20260427T18Z_MSC_RDPS_AirTemp_IsbL-0005_RLatLon0.09_PT079H.grib2 2026-04-27 21:04 289K
20260427T18Z_MSC_RDPS_AirTemp_IsbL-0010_RLatLon0.09_PT079H.grib2 2026-04-27 21:04 304K
20260427T18Z_MSC_RDPS_AirTemp_IsbL-0020_RLatLon0.09_PT079H.grib2 2026-04-27 21:04 319K
20260427T18Z_MSC_RDPS_AirTemp_IsbL-0030_RLatLon0.09_PT079H.grib2 2026-04-27 21:04 341K
20260427T18Z_MSC_RDPS_AirTemp_IsbL-0050_RLatLon0.09_PT079H.grib2 2026-04-27 21:04 312K
20260427T18Z_MSC_RDPS_AirTemp_IsbL-0100_RLatLon0.09_PT079H.grib2 2026-04-27 21:04 420K
20260427T18Z_MSC_RDPS_AirTemp_IsbL-0150_RLatLon0.09_PT079H.grib2 2026-04-27 21:04 419K
20260427T18Z_MSC_RDPS_AirTemp_IsbL-0175_RLatLon0.09_PT079H.grib2 2026-04-27 21:04 409K
20260427T18Z_MSC_RDPS_AirTemp_IsbL-0200_RLatLon0.09_PT079H.grib2 2026-04-27 21:04 412K
20260427T18Z_MSC_RDPS_AirTemp_IsbL-0225_RLatLon0.09_PT079H.grib2 2026-04-27 21:04 413K
20260427T18Z_MSC_RDPS_AirTemp_IsbL-0250_RLatLon0.09_PT079H.grib2 2026-04-27 21:04 422K
20260427T18Z_MSC_RDPS_AirTemp_IsbL-0275_RLatLon0.09_PT079H.grib2 2026-04-27 21:04 402K
20260427T18Z_MSC_RDPS_AirTemp_IsbL-0300_RLatLon0.09_PT079H.grib2 2026-04-27 21:04 434K
20260427T18Z_MSC_RDPS_AirTemp_IsbL-0350_RLatLon0.09_PT079H.grib2 2026-04-27 21:04 422K
20260427T18Z_MSC_RDPS_AirTemp_IsbL-0400_RLatLon0.09_PT079H.grib2 2026-04-27 21:04 425K
20260427T18Z_MSC_RDPS_AirTemp_IsbL-0450_RLatLon0.09_PT079H.grib2 2026-04-27 21:04 398K
20260427T18Z_MSC_RDPS_AirTemp_IsbL-0500_RLatLon0.09_PT079H.grib2 2026-04-27 21:04 408K
20260427T18Z_MSC_RDPS_AirTemp_IsbL-0550_RLatLon0.09_PT079H.grib2 2026-04-27 21:04 423K
20260427T18Z_MSC_RDPS_AirTemp_IsbL-0600_RLatLon0.09_PT079H.grib2 2026-04-27 21:04 443K
20260427T18Z_MSC_RDPS_AirTemp_IsbL-0650_RLatLon0.09_PT079H.grib2 2026-04-27 21:04 458K
20260427T18Z_MSC_RDPS_AirTemp_IsbL-0700_RLatLon0.09_PT079H.grib2 2026-04-27 21:04 376K
20260427T18Z_MSC_RDPS_AirTemp_IsbL-0750_RLatLon0.09_PT079H.grib2 2026-04-27 21:04 403K
20260427T18Z_MSC_RDPS_AirTemp_IsbL-0800_RLatLon0.09_PT079H.grib2 2026-04-27 21:04 437K
20260427T18Z_MSC_RDPS_AirTemp_IsbL-0850_RLatLon0.09_PT079H.grib2 2026-04-27 21:04 485K
20260427T18Z_MSC_RDPS_AirTemp_IsbL-0875_RLatLon0.09_PT079H.grib2 2026-04-27 21:04 508K
20260427T18Z_MSC_RDPS_AirTemp_IsbL-0900_RLatLon0.09_PT079H.grib2 2026-04-27 21:04 518K
20260427T18Z_MSC_RDPS_AirTemp_IsbL-0925_RLatLon0.09_PT079H.grib2 2026-04-27 21:04 517K
20260427T18Z_MSC_RDPS_AirTemp_IsbL-0950_RLatLon0.09_PT079H.grib2 2026-04-27 21:04 518K
20260427T18Z_MSC_RDPS_AirTemp_IsbL-0970_RLatLon0.09_PT079H.grib2 2026-04-27 21:04 511K
20260427T18Z_MSC_RDPS_AirTemp_IsbL-0985_RLatLon0.09_PT079H.grib2 2026-04-27 21:04 503K
20260427T18Z_MSC_RDPS_AirTemp_IsbL-1000_RLatLon0.09_PT079H.grib2 2026-04-27 21:04 492K
20260427T18Z_MSC_RDPS_AirTemp_IsbL-1015_RLatLon0.09_PT079H.grib2 2026-04-27 21:04 487K
20260427T18Z_MSC_RDPS_Albedo_Sfc_RLatLon0.09_PT079H.grib2 2026-04-27 21:04 159K
20260427T18Z_MSC_RDPS_CAPE_Sfc_RLatLon0.09_PT079H.grib2 2026-04-27 21:04 1.7M
20260427T18Z_MSC_RDPS_CIN_Sfc_RLatLon0.09_PT079H.grib2 2026-04-27 21:04 1.2M
20260427T18Z_MSC_RDPS_CloudWater_EAtm_RLatLon0.09_PT079H.grib2 2026-04-27 21:04 223K
20260427T18Z_MSC_RDPS_ConvectivePrecip-Accum_Sfc_RLatLon0.09_PT079H.grib2 2026-04-27 21:04 1.3M
20260427T18Z_MSC_RDPS_DewPointDepression_AGL-2m_RLatLon0.09_PT079H.grib2 2026-04-27 21:04 403K
20260427T18Z_MSC_RDPS_DewPointDepression_IsbL-0001_RLatLon0.09_PT079H.grib2 2026-04-27 21:04 193
20260427T18Z_MSC_RDPS_DewPointDepression_IsbL-0005_RLatLon0.09_PT079H.grib2 2026-04-27 21:04 193
20260427T18Z_MSC_RDPS_DewPointDepression_IsbL-0010_RLatLon0.09_PT079H.grib2 2026-04-27 21:04 193
20260427T18Z_MSC_RDPS_DewPointDepression_IsbL-0020_RLatLon0.09_PT079H.grib2 2026-04-27 21:04 193
20260427T18Z_MSC_RDPS_DewPointDepression_IsbL-0030_RLatLon0.09_PT079H.grib2 2026-04-27 21:04 193
20260427T18Z_MSC_RDPS_DewPointDepression_IsbL-0050_RLatLon0.09_PT079H.grib2 2026-04-27 21:04 81K
20260427T18Z_MSC_RDPS_DewPointDepression_IsbL-0100_RLatLon0.09_PT079H.grib2 2026-04-27 21:04 124K
20260427T18Z_MSC_RDPS_DewPointDepression_IsbL-0150_RLatLon0.09_PT079H.grib2 2026-04-27 21:04 147K
20260427T18Z_MSC_RDPS_DewPointDepression_IsbL-0175_RLatLon0.09_PT079H.grib2 2026-04-27 21:04 179K
20260427T18Z_MSC_RDPS_DewPointDepression_IsbL-0200_RLatLon0.09_PT079H.grib2 2026-04-27 21:04 217K
20260427T18Z_MSC_RDPS_DewPointDepression_IsbL-0225_RLatLon0.09_PT079H.grib2 2026-04-27 21:04 260K
20260427T18Z_MSC_RDPS_DewPointDepression_IsbL-0250_RLatLon0.09_PT079H.grib2 2026-04-27 21:04 302K
20260427T18Z_MSC_RDPS_DewPointDepression_IsbL-0275_RLatLon0.09_PT079H.grib2 2026-04-27 21:04 309K
20260427T18Z_MSC_RDPS_DewPointDepression_IsbL-0300_RLatLon0.09_PT079H.grib2 2026-04-27 21:04 329K
20260427T18Z_MSC_RDPS_DewPointDepression_IsbL-0350_RLatLon0.09_PT079H.grib2 2026-04-27 21:04 330K
20260427T18Z_MSC_RDPS_DewPointDepression_IsbL-0400_RLatLon0.09_PT079H.grib2 2026-04-27 21:04 341K
20260427T18Z_MSC_RDPS_DewPointDepression_IsbL-0450_RLatLon0.09_PT079H.grib2 2026-04-27 21:04 351K
20260427T18Z_MSC_RDPS_DewPointDepression_IsbL-0500_RLatLon0.09_PT079H.grib2 2026-04-27 21:04 357K
20260427T18Z_MSC_RDPS_DewPointDepression_IsbL-0550_RLatLon0.09_PT079H.grib2 2026-04-27 21:04 368K
20260427T18Z_MSC_RDPS_DewPointDepression_IsbL-0600_RLatLon0.09_PT079H.grib2 2026-04-27 21:04 382K
20260427T18Z_MSC_RDPS_DewPointDepression_IsbL-0650_RLatLon0.09_PT079H.grib2 2026-04-27 21:04 390K
20260427T18Z_MSC_RDPS_DewPointDepression_IsbL-0700_RLatLon0.09_PT079H.grib2 2026-04-27 21:04 401K
20260427T18Z_MSC_RDPS_DewPointDepression_IsbL-0750_RLatLon0.09_PT079H.grib2 2026-04-27 21:04 420K
20260427T18Z_MSC_RDPS_DewPointDepression_IsbL-0800_RLatLon0.09_PT079H.grib2 2026-04-27 21:04 444K
20260427T18Z_MSC_RDPS_DewPointDepression_IsbL-0850_RLatLon0.09_PT079H.grib2 2026-04-27 21:04 471K
20260427T18Z_MSC_RDPS_DewPointDepression_IsbL-0875_RLatLon0.09_PT079H.grib2 2026-04-27 21:04 476K
20260427T18Z_MSC_RDPS_DewPointDepression_IsbL-0900_RLatLon0.09_PT079H.grib2 2026-04-27 21:04 468K
20260427T18Z_MSC_RDPS_DewPointDepression_IsbL-0925_RLatLon0.09_PT079H.grib2 2026-04-27 21:04 451K
20260427T18Z_MSC_RDPS_DewPointDepression_IsbL-0950_RLatLon0.09_PT079H.grib2 2026-04-27 21:04 442K
20260427T18Z_MSC_RDPS_DewPointDepression_IsbL-0970_RLatLon0.09_PT079H.grib2 2026-04-27 21:04 431K
20260427T18Z_MSC_RDPS_DewPointDepression_IsbL-0985_RLatLon0.09_PT079H.grib2 2026-04-27 21:04 427K
20260427T18Z_MSC_RDPS_DewPointDepression_IsbL-1000_RLatLon0.09_PT079H.grib2 2026-04-27 21:04 422K
20260427T18Z_MSC_RDPS_DewPointDepression_IsbL-1015_RLatLon0.09_PT079H.grib2 2026-04-27 21:04 411K
20260427T18Z_MSC_RDPS_DewPoint_AGL-2m_RLatLon0.09_PT079H.grib2 2026-04-27 21:04 308K
20260427T18Z_MSC_RDPS_DownwardLongwaveRadiationFlux-Accum_Sfc_RLatLon0.09_PT079H.grib2 2026-04-27 21:04 434K
20260427T18Z_MSC_RDPS_DownwardShortwaveRadiationFlux-Accum_NTAtm_RLatLon0.09_PT079H.grib2 2026-04-27 21:04 113K
20260427T18Z_MSC_RDPS_DownwardShortwaveRadiationFlux-Accum_Sfc_RLatLon0.09_PT079H.grib2 2026-04-27 21:04 637K
20260427T18Z_MSC_RDPS_FreezingRain-Accum1h_Sfc_RLatLon0.09_PT079H.grib2 2026-04-27 21:04 22K
20260427T18Z_MSC_RDPS_FreezingRain-Accum_Sfc_RLatLon0.09_PT079H.grib2 2026-04-27 21:04 219K
20260427T18Z_MSC_RDPS_GeopotentialHeight_IsbL-0001_RLatLon0.09_PT079H.grib2 2026-04-27 21:04 307K
20260427T18Z_MSC_RDPS_GeopotentialHeight_IsbL-0005_RLatLon0.09_PT079H.grib2 2026-04-27 21:04 298K
20260427T18Z_MSC_RDPS_GeopotentialHeight_IsbL-0010_RLatLon0.09_PT079H.grib2 2026-04-27 21:04 300K
20260427T18Z_MSC_RDPS_GeopotentialHeight_IsbL-0020_RLatLon0.09_PT079H.grib2 2026-04-27 21:04 299K
20260427T18Z_MSC_RDPS_GeopotentialHeight_IsbL-0030_RLatLon0.09_PT079H.grib2 2026-04-27 21:04 301K
20260427T18Z_MSC_RDPS_GeopotentialHeight_IsbL-0050_RLatLon0.09_PT079H.grib2 2026-04-27 21:04 303K
20260427T18Z_MSC_RDPS_GeopotentialHeight_IsbL-0100_RLatLon0.09_PT079H.grib2 2026-04-27 21:04 280K
20260427T18Z_MSC_RDPS_GeopotentialHeight_IsbL-0150_RLatLon0.09_PT079H.grib2 2026-04-27 21:04 225K
20260427T18Z_MSC_RDPS_GeopotentialHeight_IsbL-0175_RLatLon0.09_PT079H.grib2 2026-04-27 21:04 258K
20260427T18Z_MSC_RDPS_GeopotentialHeight_IsbL-0200_RLatLon0.09_PT079H.grib2 2026-04-27 21:04 260K
20260427T18Z_MSC_RDPS_GeopotentialHeight_IsbL-0225_RLatLon0.09_PT079H.grib2 2026-04-27 21:04 262K
20260427T18Z_MSC_RDPS_GeopotentialHeight_IsbL-0250_RLatLon0.09_PT079H.grib2 2026-04-27 21:04 264K
20260427T18Z_MSC_RDPS_GeopotentialHeight_IsbL-0275_RLatLon0.09_PT079H.grib2 2026-04-27 21:04 264K
20260427T18Z_MSC_RDPS_GeopotentialHeight_IsbL-0300_RLatLon0.09_PT079H.grib2 2026-04-27 21:04 233K
20260427T18Z_MSC_RDPS_GeopotentialHeight_IsbL-0350_RLatLon0.09_PT079H.grib2 2026-04-27 21:04 229K
20260427T18Z_MSC_RDPS_GeopotentialHeight_IsbL-0400_RLatLon0.09_PT079H.grib2 2026-04-27 21:04 226K
20260427T18Z_MSC_RDPS_GeopotentialHeight_IsbL-0450_RLatLon0.09_PT079H.grib2 2026-04-27 21:04 294K
20260427T18Z_MSC_RDPS_GeopotentialHeight_IsbL-0500_RLatLon0.09_PT079H.grib2 2026-04-27 21:04 289K
20260427T18Z_MSC_RDPS_GeopotentialHeight_IsbL-0550_RLatLon0.09_PT079H.grib2 2026-04-27 21:04 286K
20260427T18Z_MSC_RDPS_GeopotentialHeight_IsbL-0600_RLatLon0.09_PT079H.grib2 2026-04-27 21:04 256K
20260427T18Z_MSC_RDPS_GeopotentialHeight_IsbL-0650_RLatLon0.09_PT079H.grib2 2026-04-27 21:04 254K
20260427T18Z_MSC_RDPS_GeopotentialHeight_IsbL-0700_RLatLon0.09_PT079H.grib2 2026-04-27 21:04 333K
20260427T18Z_MSC_RDPS_GeopotentialHeight_IsbL-0750_RLatLon0.09_PT079H.grib2 2026-04-27 21:04 335K
20260427T18Z_MSC_RDPS_GeopotentialHeight_IsbL-0800_RLatLon0.09_PT079H.grib2 2026-04-27 21:04 340K
20260427T18Z_MSC_RDPS_GeopotentialHeight_IsbL-0850_RLatLon0.09_PT079H.grib2 2026-04-27 21:04 379K
20260427T18Z_MSC_RDPS_GeopotentialHeight_IsbL-0875_RLatLon0.09_PT079H.grib2 2026-04-27 21:04 382K
20260427T18Z_MSC_RDPS_GeopotentialHeight_IsbL-0900_RLatLon0.09_PT079H.grib2 2026-04-27 21:04 387K
20260427T18Z_MSC_RDPS_GeopotentialHeight_IsbL-0925_RLatLon0.09_PT079H.grib2 2026-04-27 21:04 389K
20260427T18Z_MSC_RDPS_GeopotentialHeight_IsbL-0950_RLatLon0.09_PT079H.grib2 2026-04-27 21:04 392K
20260427T18Z_MSC_RDPS_GeopotentialHeight_IsbL-0970_RLatLon0.09_PT079H.grib2 2026-04-27 21:04 366K
20260427T18Z_MSC_RDPS_GeopotentialHeight_IsbL-0985_RLatLon0.09_PT079H.grib2 2026-04-27 21:04 373K
20260427T18Z_MSC_RDPS_GeopotentialHeight_IsbL-1000_RLatLon0.09_PT079H.grib2 2026-04-27 21:04 384K
20260427T18Z_MSC_RDPS_GeopotentialHeight_IsbL-1015_RLatLon0.09_PT079H.grib2 2026-04-27 21:04 399K
20260427T18Z_MSC_RDPS_Humidex_Sfc_RLatLon0.09_PT079H.grib2 2026-04-27 21:04 2.4M
20260427T18Z_MSC_RDPS_IcePellets-Accum1h_Sfc_RLatLon0.09_PT079H.grib2 2026-04-27 21:04 2.5K
20260427T18Z_MSC_RDPS_IcePellets-Accum_Sfc_RLatLon0.09_PT079H.grib2 2026-04-27 21:04 38K
20260427T18Z_MSC_RDPS_KIndex_Sfc_RLatLon0.09_PT079H.grib2 2026-04-27 21:04 2.5M
20260427T18Z_MSC_RDPS_LatentHeatNetFlux_Sfc_RLatLon0.09_PT079H.grib2 2026-04-27 21:04 424K
20260427T18Z_MSC_RDPS_LiftedIndex-MU-VT_IsbL-0500_RLatLon0.09_PT079H.grib2 2026-04-27 21:04 2.4M
20260427T18Z_MSC_RDPS_NetLongwaveRadiationFlux-Accum_Sfc_RLatLon0.09_PT079H.grib2 2026-04-27 21:04 481K
20260427T18Z_MSC_RDPS_NetShortwaveRadiationFlux-Accum_Sfc_RLatLon0.09_PT079H.grib2 2026-04-27 21:04 640K
20260427T18Z_MSC_RDPS_PlanetaryBoundaryLayerHeight_Sfc_RLatLon0.09_PT079H.grib2 2026-04-27 21:04 1.0M
20260427T18Z_MSC_RDPS_Precip-Accum1h_Sfc_RLatLon0.09_PT079H.grib2 2026-04-27 21:04 1.2M
20260427T18Z_MSC_RDPS_Precip-Accum_Sfc_RLatLon0.09_PT079H.grib2 2026-04-27 21:04 2.1M
20260427T18Z_MSC_RDPS_PrecipRate_Sfc_RLatLon0.09_PT079H.grib2 2026-04-27 21:04 168K
20260427T18Z_MSC_RDPS_PrecipType-Instant_Sfc_RLatLon0.09_PT079H.grib2 2026-04-27 21:04 549K
20260427T18Z_MSC_RDPS_Pressure-Trend3h_Sfc_RLatLon0.09_PT079H.grib2 2026-04-27 21:04 1.2M
20260427T18Z_MSC_RDPS_Pressure_MSL_RLatLon0.09_PT079H.grib2 2026-04-27 21:04 321K
20260427T18Z_MSC_RDPS_Pressure_PVU-1.5_RLatLon0.09_PT079H.grib2 2026-04-27 21:04 2.5M
20260427T18Z_MSC_RDPS_Pressure_PVU-1_RLatLon0.09_PT079H.grib2 2026-04-27 21:04 2.4M
20260427T18Z_MSC_RDPS_Pressure_PVU-2_RLatLon0.09_PT079H.grib2 2026-04-27 21:04 2.4M
20260427T18Z_MSC_RDPS_Pressure_Sfc_RLatLon0.09_PT079H.grib2 2026-04-27 21:04 497K
20260427T18Z_MSC_RDPS_RadiativeTemp_Sfc_RLatLon0.09_PT079H.grib2 2026-04-27 21:04 309K
20260427T18Z_MSC_RDPS_Rain-Accum1h_Sfc_RLatLon0.09_PT079H.grib2 2026-04-27 21:04 578K
20260427T18Z_MSC_RDPS_Rain-Accum_Sfc_RLatLon0.09_PT079H.grib2 2026-04-27 21:04 1.6M
20260427T18Z_MSC_RDPS_RelativeHumidity_AGL-2m_RLatLon0.09_PT079H.grib2 2026-04-27 21:04 1.0M
20260427T18Z_MSC_RDPS_RelativeHumidity_IsbL-0010_RLatLon0.09_PT079H.grib2 2026-04-27 21:04 618K
20260427T18Z_MSC_RDPS_RelativeHumidity_IsbL-0020_RLatLon0.09_PT079H.grib2 2026-04-27 21:04 664K
20260427T18Z_MSC_RDPS_RelativeHumidity_IsbL-0030_RLatLon0.09_PT079H.grib2 2026-04-27 21:04 602K
20260427T18Z_MSC_RDPS_RelativeHumidity_IsbL-0050_RLatLon0.09_PT079H.grib2 2026-04-27 21:04 366K
20260427T18Z_MSC_RDPS_RelativeHumidity_IsbL-0100_RLatLon0.09_PT079H.grib2 2026-04-27 21:04 273K
20260427T18Z_MSC_RDPS_RelativeHumidity_IsbL-0150_RLatLon0.09_PT079H.grib2 2026-04-27 21:04 401K
20260427T18Z_MSC_RDPS_RelativeHumidity_IsbL-0175_RLatLon0.09_PT079H.grib2 2026-04-27 21:04 469K
20260427T18Z_MSC_RDPS_RelativeHumidity_IsbL-0200_RLatLon0.09_PT079H.grib2 2026-04-27 21:04 549K
20260427T18Z_MSC_RDPS_RelativeHumidity_IsbL-0225_RLatLon0.09_PT079H.grib2 2026-04-27 21:04 620K
20260427T18Z_MSC_RDPS_RelativeHumidity_IsbL-0250_RLatLon0.09_PT079H.grib2 2026-04-27 21:04 699K
20260427T18Z_MSC_RDPS_RelativeHumidity_IsbL-0275_RLatLon0.09_PT079H.grib2 2026-04-27 21:04 729K
20260427T18Z_MSC_RDPS_RelativeHumidity_IsbL-0300_RLatLon0.09_PT079H.grib2 2026-04-27 21:04 774K
20260427T18Z_MSC_RDPS_RelativeHumidity_IsbL-0350_RLatLon0.09_PT079H.grib2 2026-04-27 21:04 786K
20260427T18Z_MSC_RDPS_RelativeHumidity_IsbL-0400_RLatLon0.09_PT079H.grib2 2026-04-27 21:04 798K
20260427T18Z_MSC_RDPS_RelativeHumidity_IsbL-0450_RLatLon0.09_PT079H.grib2 2026-04-27 21:04 802K
20260427T18Z_MSC_RDPS_RelativeHumidity_IsbL-0500_RLatLon0.09_PT079H.grib2 2026-04-27 21:04 807K
20260427T18Z_MSC_RDPS_RelativeHumidity_IsbL-0550_RLatLon0.09_PT079H.grib2 2026-04-27 21:04 822K
20260427T18Z_MSC_RDPS_RelativeHumidity_IsbL-0600_RLatLon0.09_PT079H.grib2 2026-04-27 21:04 847K
20260427T18Z_MSC_RDPS_RelativeHumidity_IsbL-0650_RLatLon0.09_PT079H.grib2 2026-04-27 21:04 864K
20260427T18Z_MSC_RDPS_RelativeHumidity_IsbL-0700_RLatLon0.09_PT079H.grib2 2026-04-27 21:04 889K
20260427T18Z_MSC_RDPS_RelativeHumidity_IsbL-0750_RLatLon0.09_PT079H.grib2 2026-04-27 21:04 929K
20260427T18Z_MSC_RDPS_RelativeHumidity_IsbL-0800_RLatLon0.09_PT079H.grib2 2026-04-27 21:04 1.0M
20260427T18Z_MSC_RDPS_RelativeHumidity_IsbL-0850_RLatLon0.09_PT079H.grib2 2026-04-27 21:04 1.0M
20260427T18Z_MSC_RDPS_RelativeHumidity_IsbL-0875_RLatLon0.09_PT079H.grib2 2026-04-27 21:04 1.0M
20260427T18Z_MSC_RDPS_RelativeHumidity_IsbL-0900_RLatLon0.09_PT079H.grib2 2026-04-27 21:04 1.1M
20260427T18Z_MSC_RDPS_RelativeHumidity_IsbL-0925_RLatLon0.09_PT079H.grib2 2026-04-27 21:04 1.1M
20260427T18Z_MSC_RDPS_RelativeHumidity_IsbL-0950_RLatLon0.09_PT079H.grib2 2026-04-27 21:04 1.1M
20260427T18Z_MSC_RDPS_RelativeHumidity_IsbL-0970_RLatLon0.09_PT079H.grib2 2026-04-27 21:04 1.0M
20260427T18Z_MSC_RDPS_RelativeHumidity_IsbL-0985_RLatLon0.09_PT079H.grib2 2026-04-27 21:04 1.0M
20260427T18Z_MSC_RDPS_RelativeHumidity_IsbL-1000_RLatLon0.09_PT079H.grib2 2026-04-27 21:04 1.0M
20260427T18Z_MSC_RDPS_RelativeHumidity_IsbL-1015_RLatLon0.09_PT079H.grib2 2026-04-27 21:04 1.0M
20260427T18Z_MSC_RDPS_Runoff-Accum_Sfc_RLatLon0.09_PT079H.grib2 2026-04-27 21:04 67K
20260427T18Z_MSC_RDPS_SWEATIndex_Sfc_RLatLon0.09_PT079H.grib2 2026-04-27 21:04 2.4M
20260427T18Z_MSC_RDPS_SeeingIndex_EAtm_RLatLon0.09_PT079H.grib2 2026-04-27 21:04 1.0M
20260427T18Z_MSC_RDPS_SensibleHeatNetFlux_Sfc_RLatLon0.09_PT079H.grib2 2026-04-27 21:04 293K
20260427T18Z_MSC_RDPS_ShowalterIndex_IsbL-0500_RLatLon0.09_PT079H.grib2 2026-04-27 21:04 2.6M
20260427T18Z_MSC_RDPS_SkyTransparencyIndex_EAtm_RLatLon0.09_PT079H.grib2 2026-04-27 21:04 698K
20260427T18Z_MSC_RDPS_Snow-Accum1h_Sfc_RLatLon0.09_PT079H.grib2 2026-04-27 21:04 461K
20260427T18Z_MSC_RDPS_Snow-Accum_Sfc_RLatLon0.09_PT079H.grib2 2026-04-27 21:04 832K
20260427T18Z_MSC_RDPS_SnowDensity_Sfc_RLatLon0.09_PT079H.grib2 2026-04-27 21:04 183K
20260427T18Z_MSC_RDPS_SnowDepth_Sfc_RLatLon0.09_PT079H.grib2 2026-04-27 21:04 685K
20260427T18Z_MSC_RDPS_SoilTemp_DBS-0to10cm_RLatLon0.09_PT079H.grib2 2026-04-27 21:04 246K
20260427T18Z_MSC_RDPS_SoilTemp_Sfc_RLatLon0.09_PT079H.grib2 2026-04-27 21:04 283K
20260427T18Z_MSC_RDPS_SoilVolumetricIceContent_Sfc_RLatLon0.09_PT079H.grib2 2026-04-27 21:04 163K
20260427T18Z_MSC_RDPS_SoilVolumetricWaterContent_DBS-0to10cm_RLatLon0.09_PT079H.grib2 2026-04-27 21:04 270K
20260427T18Z_MSC_RDPS_SoilVolumetricWaterContent_DBS-0to1cm_RLatLon0.09_PT079H.grib2 2026-04-27 21:04 339K
20260427T18Z_MSC_RDPS_SpecificHumidity_AGL-120m_RLatLon0.09_PT079H.grib2 2026-04-27 21:04 484K
20260427T18Z_MSC_RDPS_SpecificHumidity_AGL-2m_RLatLon0.09_PT079H.grib2 2026-04-27 21:04 655K
20260427T18Z_MSC_RDPS_SpecificHumidity_AGL-40m_RLatLon0.09_PT079H.grib2 2026-04-27 21:04 491K
20260427T18Z_MSC_RDPS_SpecificHumidity_AGL-80m_RLatLon0.09_PT079H.grib2 2026-04-27 21:04 485K
20260427T18Z_MSC_RDPS_SpecificHumidity_IsbL-0001_RLatLon0.09_PT079H.grib2 2026-04-27 21:04 357K
20260427T18Z_MSC_RDPS_SpecificHumidity_IsbL-0005_RLatLon0.09_PT079H.grib2 2026-04-27 21:04 351K
20260427T18Z_MSC_RDPS_SpecificHumidity_IsbL-0010_RLatLon0.09_PT079H.grib2 2026-04-27 21:04 388K
20260427T18Z_MSC_RDPS_SpecificHumidity_IsbL-0020_RLatLon0.09_PT079H.grib2 2026-04-27 21:04 371K
20260427T18Z_MSC_RDPS_SpecificHumidity_IsbL-0030_RLatLon0.09_PT079H.grib2 2026-04-27 21:04 464K
20260427T18Z_MSC_RDPS_SpecificHumidity_IsbL-0050_RLatLon0.09_PT079H.grib2 2026-04-27 21:04 438K
20260427T18Z_MSC_RDPS_SpecificHumidity_IsbL-0100_RLatLon0.09_PT079H.grib2 2026-04-27 21:04 413K
20260427T18Z_MSC_RDPS_SpecificHumidity_IsbL-0150_RLatLon0.09_PT079H.grib2 2026-04-27 21:04 447K
20260427T18Z_MSC_RDPS_SpecificHumidity_IsbL-0175_RLatLon0.09_PT079H.grib2 2026-04-27 21:04 429K
20260427T18Z_MSC_RDPS_SpecificHumidity_IsbL-0200_RLatLon0.09_PT079H.grib2 2026-04-27 21:04 463K
20260427T18Z_MSC_RDPS_SpecificHumidity_IsbL-0225_RLatLon0.09_PT079H.grib2 2026-04-27 21:04 466K
20260427T18Z_MSC_RDPS_SpecificHumidity_IsbL-0250_RLatLon0.09_PT079H.grib2 2026-04-27 21:04 518K
20260427T18Z_MSC_RDPS_SpecificHumidity_IsbL-0275_RLatLon0.09_PT079H.grib2 2026-04-27 21:04 481K
20260427T18Z_MSC_RDPS_SpecificHumidity_IsbL-0300_RLatLon0.09_PT079H.grib2 2026-04-27 21:04 455K
20260427T18Z_MSC_RDPS_SpecificHumidity_IsbL-0350_RLatLon0.09_PT079H.grib2 2026-04-27 21:04 443K
20260427T18Z_MSC_RDPS_SpecificHumidity_IsbL-0400_RLatLon0.09_PT079H.grib2 2026-04-27 21:04 523K
20260427T18Z_MSC_RDPS_SpecificHumidity_IsbL-0450_RLatLon0.09_PT079H.grib2 2026-04-27 21:04 576K
20260427T18Z_MSC_RDPS_SpecificHumidity_IsbL-0500_RLatLon0.09_PT079H.grib2 2026-04-27 21:04 512K
20260427T18Z_MSC_RDPS_SpecificHumidity_IsbL-0550_RLatLon0.09_PT079H.grib2 2026-04-27 21:04 584K
20260427T18Z_MSC_RDPS_SpecificHumidity_IsbL-0600_RLatLon0.09_PT079H.grib2 2026-04-27 21:04 641K
20260427T18Z_MSC_RDPS_SpecificHumidity_IsbL-0650_RLatLon0.09_PT079H.grib2 2026-04-27 21:04 561K
20260427T18Z_MSC_RDPS_SpecificHumidity_IsbL-0700_RLatLon0.09_PT079H.grib2 2026-04-27 21:04 604K
20260427T18Z_MSC_RDPS_SpecificHumidity_IsbL-0750_RLatLon0.09_PT079H.grib2 2026-04-27 21:04 659K
20260427T18Z_MSC_RDPS_SpecificHumidity_IsbL-0800_RLatLon0.09_PT079H.grib2 2026-04-27 21:04 732K
20260427T18Z_MSC_RDPS_SpecificHumidity_IsbL-0850_RLatLon0.09_PT079H.grib2 2026-04-27 21:04 801K
20260427T18Z_MSC_RDPS_SpecificHumidity_IsbL-0875_RLatLon0.09_PT079H.grib2 2026-04-27 21:04 828K
20260427T18Z_MSC_RDPS_SpecificHumidity_IsbL-0900_RLatLon0.09_PT079H.grib2 2026-04-27 21:04 844K
20260427T18Z_MSC_RDPS_SpecificHumidity_IsbL-0925_RLatLon0.09_PT079H.grib2 2026-04-27 21:04 846K
20260427T18Z_MSC_RDPS_SpecificHumidity_IsbL-0950_RLatLon0.09_PT079H.grib2 2026-04-27 21:04 704K
20260427T18Z_MSC_RDPS_SpecificHumidity_IsbL-0970_RLatLon0.09_PT079H.grib2 2026-04-27 21:04 692K
20260427T18Z_MSC_RDPS_SpecificHumidity_IsbL-0985_RLatLon0.09_PT079H.grib2 2026-04-27 21:04 681K
20260427T18Z_MSC_RDPS_SpecificHumidity_IsbL-1000_RLatLon0.09_PT079H.grib2 2026-04-27 21:04 673K
20260427T18Z_MSC_RDPS_SpecificHumidity_IsbL-1015_RLatLon0.09_PT079H.grib2 2026-04-27 21:04 663K
20260427T18Z_MSC_RDPS_SpecificHumidity_Sfc_RLatLon0.09_PT079H.grib2 2026-04-27 21:04 325K
20260427T18Z_MSC_RDPS_StormRelativeHelicity_EtaL-10000_RLatLon0.09_PT079H.grib2 2026-04-27 21:04 1.1M
20260427T18Z_MSC_RDPS_StormSeverityIndex_EtaL-10000_RLatLon0.09_PT079H.grib2 2026-04-27 21:04 1.1M
20260427T18Z_MSC_RDPS_Thickness_IsbL-0850to0700_RLatLon0.09_PT079H.grib2 2026-04-27 21:04 193K
20260427T18Z_MSC_RDPS_Thickness_IsbL-1000to0500_RLatLon0.09_PT079H.grib2 2026-04-27 21:04 197K
20260427T18Z_MSC_RDPS_Thickness_IsbL-1000to0850_RLatLon0.09_PT079H.grib2 2026-04-27 21:04 182K
20260427T18Z_MSC_RDPS_TotalCloudCover_Sfc_RLatLon0.09_PT079H.grib2 2026-04-27 21:04 655K
20260427T18Z_MSC_RDPS_TotalTotalsIndex_Sfc_RLatLon0.09_PT079H.grib2 2026-04-27 21:04 2.4M
20260427T18Z_MSC_RDPS_UVIndex-ClearSky_Sfc_RLatLon0.09_PT079H.grib2 2026-04-27 21:04 142K
20260427T18Z_MSC_RDPS_UVIndex_Sfc_RLatLon0.09_PT079H.grib2 2026-04-27 21:04 318K
20260427T18Z_MSC_RDPS_UpwardLongwaveRadiationFlux_NTAtm_RLatLon0.09_PT079H.grib2 2026-04-27 21:04 492K
20260427T18Z_MSC_RDPS_UpwardShortwaveRadiationFlux_NTAtm_RLatLon0.09_PT079H.grib2 2026-04-27 21:04 289K
20260427T18Z_MSC_RDPS_VerticalVelocity_IsbL-0250_RLatLon0.09_PT079H.grib2 2026-04-27 21:04 545K
20260427T18Z_MSC_RDPS_VerticalVelocity_IsbL-0500_RLatLon0.09_PT079H.grib2 2026-04-27 21:04 541K
20260427T18Z_MSC_RDPS_VerticalVelocity_IsbL-0700_RLatLon0.09_PT079H.grib2 2026-04-27 21:04 589K
20260427T18Z_MSC_RDPS_VerticalVelocity_IsbL-0850_RLatLon0.09_PT079H.grib2 2026-04-27 21:04 634K
20260427T18Z_MSC_RDPS_VerticalWindShear_EtaL-6500_RLatLon0.09_PT079H.grib2 2026-04-27 21:04 1.2M
20260427T18Z_MSC_RDPS_WindChill_Sfc_RLatLon0.09_PT079H.grib2 2026-04-27 21:04 1.1M
20260427T18Z_MSC_RDPS_WindDir_AGL-10m_RLatLon0.09_PT079H.grib2 2026-04-27 21:04 961K
20260427T18Z_MSC_RDPS_WindDir_AGL-120m_RLatLon0.09_PT079H.grib2 2026-04-27 21:04 608K
20260427T18Z_MSC_RDPS_WindDir_AGL-40m_RLatLon0.09_PT079H.grib2 2026-04-27 21:04 633K
20260427T18Z_MSC_RDPS_WindDir_AGL-80m_RLatLon0.09_PT079H.grib2 2026-04-27 21:04 618K
20260427T18Z_MSC_RDPS_WindDir_IsbL-0001_RLatLon0.09_PT079H.grib2 2026-04-27 21:04 314K
20260427T18Z_MSC_RDPS_WindDir_IsbL-0005_RLatLon0.09_PT079H.grib2 2026-04-27 21:04 369K
20260427T18Z_MSC_RDPS_WindDir_IsbL-0010_RLatLon0.09_PT079H.grib2 2026-04-27 21:04 387K
20260427T18Z_MSC_RDPS_WindDir_IsbL-0020_RLatLon0.09_PT079H.grib2 2026-04-27 21:04 427K
20260427T18Z_MSC_RDPS_WindDir_IsbL-0030_RLatLon0.09_PT079H.grib2 2026-04-27 21:04 409K
20260427T18Z_MSC_RDPS_WindDir_IsbL-0050_RLatLon0.09_PT079H.grib2 2026-04-27 21:04 417K
20260427T18Z_MSC_RDPS_WindDir_IsbL-0100_RLatLon0.09_PT079H.grib2 2026-04-27 21:04 422K
20260427T18Z_MSC_RDPS_WindDir_IsbL-0150_RLatLon0.09_PT079H.grib2 2026-04-27 21:04 413K
20260427T18Z_MSC_RDPS_WindDir_IsbL-0175_RLatLon0.09_PT079H.grib2 2026-04-27 21:04 441K
20260427T18Z_MSC_RDPS_WindDir_IsbL-0200_RLatLon0.09_PT079H.grib2 2026-04-27 21:04 453K
20260427T18Z_MSC_RDPS_WindDir_IsbL-0225_RLatLon0.09_PT079H.grib2 2026-04-27 21:04 458K
20260427T18Z_MSC_RDPS_WindDir_IsbL-0250_RLatLon0.09_PT079H.grib2 2026-04-27 21:04 459K
20260427T18Z_MSC_RDPS_WindDir_IsbL-0275_RLatLon0.09_PT079H.grib2 2026-04-27 21:04 482K
20260427T18Z_MSC_RDPS_WindDir_IsbL-0300_RLatLon0.09_PT079H.grib2 2026-04-27 21:04 477K
20260427T18Z_MSC_RDPS_WindDir_IsbL-0350_RLatLon0.09_PT079H.grib2 2026-04-27 21:04 496K
20260427T18Z_MSC_RDPS_WindDir_IsbL-0400_RLatLon0.09_PT079H.grib2 2026-04-27 21:04 509K
20260427T18Z_MSC_RDPS_WindDir_IsbL-0450_RLatLon0.09_PT079H.grib2 2026-04-27 21:04 517K
20260427T18Z_MSC_RDPS_WindDir_IsbL-0500_RLatLon0.09_PT079H.grib2 2026-04-27 21:04 531K
20260427T18Z_MSC_RDPS_WindDir_IsbL-0550_RLatLon0.09_PT079H.grib2 2026-04-27 21:04 553K
20260427T18Z_MSC_RDPS_WindDir_IsbL-0600_RLatLon0.09_PT079H.grib2 2026-04-27 21:04 585K
20260427T18Z_MSC_RDPS_WindDir_IsbL-0650_RLatLon0.09_PT079H.grib2 2026-04-27 21:04 627K
20260427T18Z_MSC_RDPS_WindDir_IsbL-0700_RLatLon0.09_PT079H.grib2 2026-04-27 21:04 676K
20260427T18Z_MSC_RDPS_WindDir_IsbL-0750_RLatLon0.09_PT079H.grib2 2026-04-27 21:04 730K
20260427T18Z_MSC_RDPS_WindDir_IsbL-0800_RLatLon0.09_PT079H.grib2 2026-04-27 21:04 790K
20260427T18Z_MSC_RDPS_WindDir_IsbL-0850_RLatLon0.09_PT079H.grib2 2026-04-27 21:04 854K
20260427T18Z_MSC_RDPS_WindDir_IsbL-0875_RLatLon0.09_PT079H.grib2 2026-04-27 21:04 880K
20260427T18Z_MSC_RDPS_WindDir_IsbL-0900_RLatLon0.09_PT079H.grib2 2026-04-27 21:04 898K
20260427T18Z_MSC_RDPS_WindDir_IsbL-0925_RLatLon0.09_PT079H.grib2 2026-04-27 21:04 911K
20260427T18Z_MSC_RDPS_WindDir_IsbL-0950_RLatLon0.09_PT079H.grib2 2026-04-27 21:04 917K
20260427T18Z_MSC_RDPS_WindDir_IsbL-0970_RLatLon0.09_PT079H.grib2 2026-04-27 21:04 922K
20260427T18Z_MSC_RDPS_WindDir_IsbL-0985_RLatLon0.09_PT079H.grib2 2026-04-27 21:04 929K
20260427T18Z_MSC_RDPS_WindDir_IsbL-1000_RLatLon0.09_PT079H.grib2 2026-04-27 21:04 942K
20260427T18Z_MSC_RDPS_WindDir_IsbL-1015_RLatLon0.09_PT079H.grib2 2026-04-27 21:04 955K
20260427T18Z_MSC_RDPS_WindGust-Max_AGL-10m_RLatLon0.09_PT079H.grib2 2026-04-27 21:04 1.0M
20260427T18Z_MSC_RDPS_WindGust-Min_AGL-10m_RLatLon0.09_PT079H.grib2 2026-04-27 21:04 964K
20260427T18Z_MSC_RDPS_WindGust_AGL-10m_RLatLon0.09_PT079H.grib2 2026-04-27 21:04 1.0M
20260427T18Z_MSC_RDPS_WindSpeed_AGL-10m_RLatLon0.09_PT079H.grib2 2026-04-27 21:04 826K
20260427T18Z_MSC_RDPS_WindSpeed_AGL-120m_RLatLon0.09_PT079H.grib2 2026-04-27 21:04 540K
20260427T18Z_MSC_RDPS_WindSpeed_AGL-40m_RLatLon0.09_PT079H.grib2 2026-04-27 21:04 531K
20260427T18Z_MSC_RDPS_WindSpeed_AGL-80m_RLatLon0.09_PT079H.grib2 2026-04-27 21:04 529K
20260427T18Z_MSC_RDPS_WindSpeed_IsbL-0001_RLatLon0.09_PT079H.grib2 2026-04-27 21:04 252K
20260427T18Z_MSC_RDPS_WindSpeed_IsbL-0005_RLatLon0.09_PT079H.grib2 2026-04-27 21:04 383K
20260427T18Z_MSC_RDPS_WindSpeed_IsbL-0010_RLatLon0.09_PT079H.grib2 2026-04-27 21:04 401K
20260427T18Z_MSC_RDPS_WindSpeed_IsbL-0020_RLatLon0.09_PT079H.grib2 2026-04-27 21:04 327K
20260427T18Z_MSC_RDPS_WindSpeed_IsbL-0030_RLatLon0.09_PT079H.grib2 2026-04-27 21:04 325K
20260427T18Z_MSC_RDPS_WindSpeed_IsbL-0050_RLatLon0.09_PT079H.grib2 2026-04-27 21:04 451K
20260427T18Z_MSC_RDPS_WindSpeed_IsbL-0100_RLatLon0.09_PT079H.grib2 2026-04-27 21:04 472K
20260427T18Z_MSC_RDPS_WindSpeed_IsbL-0150_RLatLon0.09_PT079H.grib2 2026-04-27 21:04 378K
20260427T18Z_MSC_RDPS_WindSpeed_IsbL-0175_RLatLon0.09_PT079H.grib2 2026-04-27 21:04 424K
20260427T18Z_MSC_RDPS_WindSpeed_IsbL-0200_RLatLon0.09_PT079H.grib2 2026-04-27 21:04 441K
20260427T18Z_MSC_RDPS_WindSpeed_IsbL-0225_RLatLon0.09_PT079H.grib2 2026-04-27 21:04 449K
20260427T18Z_MSC_RDPS_WindSpeed_IsbL-0250_RLatLon0.09_PT079H.grib2 2026-04-27 21:04 453K
20260427T18Z_MSC_RDPS_WindSpeed_IsbL-0275_RLatLon0.09_PT079H.grib2 2026-04-27 21:04 472K
20260427T18Z_MSC_RDPS_WindSpeed_IsbL-0300_RLatLon0.09_PT079H.grib2 2026-04-27 21:04 469K
20260427T18Z_MSC_RDPS_WindSpeed_IsbL-0350_RLatLon0.09_PT079H.grib2 2026-04-27 21:04 479K
20260427T18Z_MSC_RDPS_WindSpeed_IsbL-0400_RLatLon0.09_PT079H.grib2 2026-04-27 21:04 480K
20260427T18Z_MSC_RDPS_WindSpeed_IsbL-0450_RLatLon0.09_PT079H.grib2 2026-04-27 21:04 482K
20260427T18Z_MSC_RDPS_WindSpeed_IsbL-0500_RLatLon0.09_PT079H.grib2 2026-04-27 21:04 466K
20260427T18Z_MSC_RDPS_WindSpeed_IsbL-0550_RLatLon0.09_PT079H.grib2 2026-04-27 21:04 464K
20260427T18Z_MSC_RDPS_WindSpeed_IsbL-0600_RLatLon0.09_PT079H.grib2 2026-04-27 21:04 591K
20260427T18Z_MSC_RDPS_WindSpeed_IsbL-0650_RLatLon0.09_PT079H.grib2 2026-04-27 21:04 611K
20260427T18Z_MSC_RDPS_WindSpeed_IsbL-0700_RLatLon0.09_PT079H.grib2 2026-04-27 21:04 637K
20260427T18Z_MSC_RDPS_WindSpeed_IsbL-0750_RLatLon0.09_PT079H.grib2 2026-04-27 21:04 708K
20260427T18Z_MSC_RDPS_WindSpeed_IsbL-0800_RLatLon0.09_PT079H.grib2 2026-04-27 21:04 748K
20260427T18Z_MSC_RDPS_WindSpeed_IsbL-0850_RLatLon0.09_PT079H.grib2 2026-04-27 21:04 794K
20260427T18Z_MSC_RDPS_WindSpeed_IsbL-0875_RLatLon0.09_PT079H.grib2 2026-04-27 21:04 822K
20260427T18Z_MSC_RDPS_WindSpeed_IsbL-0900_RLatLon0.09_PT079H.grib2 2026-04-27 21:04 840K
20260427T18Z_MSC_RDPS_WindSpeed_IsbL-0925_RLatLon0.09_PT079H.grib2 2026-04-27 21:04 852K
20260427T18Z_MSC_RDPS_WindSpeed_IsbL-0950_RLatLon0.09_PT079H.grib2 2026-04-27 21:04 855K
20260427T18Z_MSC_RDPS_WindSpeed_IsbL-0970_RLatLon0.09_PT079H.grib2 2026-04-27 21:04 855K
20260427T18Z_MSC_RDPS_WindSpeed_IsbL-0985_RLatLon0.09_PT079H.grib2 2026-04-27 21:04 846K
20260427T18Z_MSC_RDPS_WindSpeed_IsbL-1000_RLatLon0.09_PT079H.grib2 2026-04-27 21:04 839K
20260427T18Z_MSC_RDPS_WindSpeed_IsbL-1015_RLatLon0.09_PT079H.grib2 2026-04-27 21:04 828K
20260427T18Z_MSC_RDPS_WindU_AGL-10m_RLatLon0.09_PT079H.grib2 2026-04-27 21:04 426K
20260427T18Z_MSC_RDPS_WindU_AGL-120m_RLatLon0.09_PT079H.grib2 2026-04-27 21:04 415K
20260427T18Z_MSC_RDPS_WindU_AGL-40m_RLatLon0.09_PT079H.grib2 2026-04-27 21:04 532K
20260427T18Z_MSC_RDPS_WindU_AGL-80m_RLatLon0.09_PT079H.grib2 2026-04-27 21:04 532K
20260427T18Z_MSC_RDPS_WindU_IsbL-0001_RLatLon0.09_PT079H.grib2 2026-04-27 21:04 243K
20260427T18Z_MSC_RDPS_WindU_IsbL-0005_RLatLon0.09_PT079H.grib2 2026-04-27 21:04 287K
20260427T18Z_MSC_RDPS_WindU_IsbL-0010_RLatLon0.09_PT079H.grib2 2026-04-27 21:04 300K
20260427T18Z_MSC_RDPS_WindU_IsbL-0020_RLatLon0.09_PT079H.grib2 2026-04-27 21:04 355K
20260427T18Z_MSC_RDPS_WindU_IsbL-0030_RLatLon0.09_PT079H.grib2 2026-04-27 21:04 316K
20260427T18Z_MSC_RDPS_WindU_IsbL-0050_RLatLon0.09_PT079H.grib2 2026-04-27 21:04 343K
20260427T18Z_MSC_RDPS_WindU_IsbL-0100_RLatLon0.09_PT079H.grib2 2026-04-27 21:04 429K
20260427T18Z_MSC_RDPS_WindU_IsbL-0150_RLatLon0.09_PT079H.grib2 2026-04-27 21:04 395K
20260427T18Z_MSC_RDPS_WindU_IsbL-0175_RLatLon0.09_PT079H.grib2 2026-04-27 21:04 417K
20260427T18Z_MSC_RDPS_WindU_IsbL-0200_RLatLon0.09_PT079H.grib2 2026-04-27 21:04 434K
20260427T18Z_MSC_RDPS_WindU_IsbL-0225_RLatLon0.09_PT079H.grib2 2026-04-27 21:04 342K
20260427T18Z_MSC_RDPS_WindU_IsbL-0250_RLatLon0.09_PT079H.grib2 2026-04-27 21:04 345K
20260427T18Z_MSC_RDPS_WindU_IsbL-0275_RLatLon0.09_PT079H.grib2 2026-04-27 21:04 360K
20260427T18Z_MSC_RDPS_WindU_IsbL-0300_RLatLon0.09_PT079H.grib2 2026-04-27 21:04 356K
20260427T18Z_MSC_RDPS_WindU_IsbL-0350_RLatLon0.09_PT079H.grib2 2026-04-27 21:04 364K
20260427T18Z_MSC_RDPS_WindU_IsbL-0400_RLatLon0.09_PT079H.grib2 2026-04-27 21:04 366K
20260427T18Z_MSC_RDPS_WindU_IsbL-0450_RLatLon0.09_PT079H.grib2 2026-04-27 21:04 471K
20260427T18Z_MSC_RDPS_WindU_IsbL-0500_RLatLon0.09_PT079H.grib2 2026-04-27 21:04 473K
20260427T18Z_MSC_RDPS_WindU_IsbL-0550_RLatLon0.09_PT079H.grib2 2026-04-27 21:04 472K
20260427T18Z_MSC_RDPS_WindU_IsbL-0600_RLatLon0.09_PT079H.grib2 2026-04-27 21:04 480K
20260427T18Z_MSC_RDPS_WindU_IsbL-0650_RLatLon0.09_PT079H.grib2 2026-04-27 21:04 482K
20260427T18Z_MSC_RDPS_WindU_IsbL-0700_RLatLon0.09_PT079H.grib2 2026-04-27 21:04 505K
20260427T18Z_MSC_RDPS_WindU_IsbL-0750_RLatLon0.09_PT079H.grib2 2026-04-27 21:04 530K
20260427T18Z_MSC_RDPS_WindU_IsbL-0800_RLatLon0.09_PT079H.grib2 2026-04-27 21:04 565K
20260427T18Z_MSC_RDPS_WindU_IsbL-0850_RLatLon0.09_PT079H.grib2 2026-04-27 21:04 612K
20260427T18Z_MSC_RDPS_WindU_IsbL-0875_RLatLon0.09_PT079H.grib2 2026-04-27 21:04 629K
20260427T18Z_MSC_RDPS_WindU_IsbL-0900_RLatLon0.09_PT079H.grib2 2026-04-27 21:04 643K
20260427T18Z_MSC_RDPS_WindU_IsbL-0925_RLatLon0.09_PT079H.grib2 2026-04-27 21:04 651K
20260427T18Z_MSC_RDPS_WindU_IsbL-0950_RLatLon0.09_PT079H.grib2 2026-04-27 21:04 652K
20260427T18Z_MSC_RDPS_WindU_IsbL-0970_RLatLon0.09_PT079H.grib2 2026-04-27 21:04 650K
20260427T18Z_MSC_RDPS_WindU_IsbL-0985_RLatLon0.09_PT079H.grib2 2026-04-27 21:04 646K
20260427T18Z_MSC_RDPS_WindU_IsbL-1000_RLatLon0.09_PT079H.grib2 2026-04-27 21:04 780K
20260427T18Z_MSC_RDPS_WindU_IsbL-1015_RLatLon0.09_PT079H.grib2 2026-04-27 21:04 771K
20260427T18Z_MSC_RDPS_WindV_AGL-10m_RLatLon0.09_PT079H.grib2 2026-04-27 21:04 423K
20260427T18Z_MSC_RDPS_WindV_AGL-120m_RLatLon0.09_PT079H.grib2 2026-04-27 21:04 524K
20260427T18Z_MSC_RDPS_WindV_AGL-40m_RLatLon0.09_PT079H.grib2 2026-04-27 21:04 526K
20260427T18Z_MSC_RDPS_WindV_AGL-80m_RLatLon0.09_PT079H.grib2 2026-04-27 21:04 524K
20260427T18Z_MSC_RDPS_WindV_IsbL-0001_RLatLon0.09_PT079H.grib2 2026-04-27 21:04 245K
20260427T18Z_MSC_RDPS_WindV_IsbL-0005_RLatLon0.09_PT079H.grib2 2026-04-27 21:04 286K
20260427T18Z_MSC_RDPS_WindV_IsbL-0010_RLatLon0.09_PT079H.grib2 2026-04-27 21:04 303K
20260427T18Z_MSC_RDPS_WindV_IsbL-0020_RLatLon0.09_PT079H.grib2 2026-04-27 21:04 320K
20260427T18Z_MSC_RDPS_WindV_IsbL-0030_RLatLon0.09_PT079H.grib2 2026-04-27 21:04 319K
20260427T18Z_MSC_RDPS_WindV_IsbL-0050_RLatLon0.09_PT079H.grib2 2026-04-27 21:04 343K
20260427T18Z_MSC_RDPS_WindV_IsbL-0100_RLatLon0.09_PT079H.grib2 2026-04-27 21:04 424K
20260427T18Z_MSC_RDPS_WindV_IsbL-0150_RLatLon0.09_PT079H.grib2 2026-04-27 21:04 392K
20260427T18Z_MSC_RDPS_WindV_IsbL-0175_RLatLon0.09_PT079H.grib2 2026-04-27 21:04 416K
20260427T18Z_MSC_RDPS_WindV_IsbL-0200_RLatLon0.09_PT079H.grib2 2026-04-27 21:04 432K
20260427T18Z_MSC_RDPS_WindV_IsbL-0225_RLatLon0.09_PT079H.grib2 2026-04-27 21:04 339K
20260427T18Z_MSC_RDPS_WindV_IsbL-0250_RLatLon0.09_PT079H.grib2 2026-04-27 21:04 440K
20260427T18Z_MSC_RDPS_WindV_IsbL-0275_RLatLon0.09_PT079H.grib2 2026-04-27 21:04 358K
20260427T18Z_MSC_RDPS_WindV_IsbL-0300_RLatLon0.09_PT079H.grib2 2026-04-27 21:04 352K
20260427T18Z_MSC_RDPS_WindV_IsbL-0350_RLatLon0.09_PT079H.grib2 2026-04-27 21:04 362K
20260427T18Z_MSC_RDPS_WindV_IsbL-0400_RLatLon0.09_PT079H.grib2 2026-04-27 21:04 466K
20260427T18Z_MSC_RDPS_WindV_IsbL-0450_RLatLon0.09_PT079H.grib2 2026-04-27 21:04 468K
20260427T18Z_MSC_RDPS_WindV_IsbL-0500_RLatLon0.09_PT079H.grib2 2026-04-27 21:04 468K
20260427T18Z_MSC_RDPS_WindV_IsbL-0550_RLatLon0.09_PT079H.grib2 2026-04-27 21:04 468K
20260427T18Z_MSC_RDPS_WindV_IsbL-0600_RLatLon0.09_PT079H.grib2 2026-04-27 21:04 459K
20260427T18Z_MSC_RDPS_WindV_IsbL-0650_RLatLon0.09_PT079H.grib2 2026-04-27 21:04 478K
20260427T18Z_MSC_RDPS_WindV_IsbL-0700_RLatLon0.09_PT079H.grib2 2026-04-27 21:04 500K
20260427T18Z_MSC_RDPS_WindV_IsbL-0750_RLatLon0.09_PT079H.grib2 2026-04-27 21:04 524K
20260427T18Z_MSC_RDPS_WindV_IsbL-0800_RLatLon0.09_PT079H.grib2 2026-04-27 21:04 559K
20260427T18Z_MSC_RDPS_WindV_IsbL-0850_RLatLon0.09_PT079H.grib2 2026-04-27 21:04 739K
20260427T18Z_MSC_RDPS_WindV_IsbL-0875_RLatLon0.09_PT079H.grib2 2026-04-27 21:04 625K
20260427T18Z_MSC_RDPS_WindV_IsbL-0900_RLatLon0.09_PT079H.grib2 2026-04-27 21:04 639K
20260427T18Z_MSC_RDPS_WindV_IsbL-0925_RLatLon0.09_PT079H.grib2 2026-04-27 21:04 646K
20260427T18Z_MSC_RDPS_WindV_IsbL-0950_RLatLon0.09_PT079H.grib2 2026-04-27 21:04 785K
20260427T18Z_MSC_RDPS_WindV_IsbL-0970_RLatLon0.09_PT079H.grib2 2026-04-27 21:04 783K
20260427T18Z_MSC_RDPS_WindV_IsbL-0985_RLatLon0.09_PT079H.grib2 2026-04-27 21:04 778K
20260427T18Z_MSC_RDPS_WindV_IsbL-1000_RLatLon0.09_PT079H.grib2 2026-04-27 21:04 771K
20260427T18Z_MSC_RDPS_WindV_IsbL-1015_RLatLon0.09_PT079H.grib2 2026-04-27 21:04 809K